Weather in Abuja

Nigeria     9°03′04″N   7°31′18″E
temp.,
°C
wind,
m/s
gust,
m/s
humid.,
%
clouds,
%
prec.,
mm/h
press.,
hPa
HPBL,
m
4 march, thu
thu401:00+27ne4121573 0.0 1008360
04:00+26ne410140 0.0 1007230
07:00+24ese26164 0.0 1009160
10:00+32ese34120 0.0 1010728
13:00+37se34112 0.0 10081769
16:00+39se121061 0.0 10042846
19:00+32s241533 0.0 1005301
22:00+29nne121932 0.0 100737
5 march, fri
fri501:00+27nne121916 0.0 100832
04:00+27ne5121341 0.0 1008293
07:00+22ene122143 0.0 101061
10:00+30se231651 0.0 1011564
13:00+36ese441575 0.0 10081434
16:00+38e231296 0.0 10042935
19:00+32sse362265 0.0 1006291
22:00+29ese1226100 0.0 100866
6 march, sat
sat601:00+27n1229100 0.0 100926
04:00+24w115858 0.0 1009106
07:00+22s238979 0.0 1012145
10:00+29s215532 0.0 1014840
13:00+36e242416 0.0 10102003
16:00+38se35191 0.0 10062972
19:00+32sse36281 0.0 1007389
22:00+28sw113960 0.0 101061
7 march, sun
sun701:00+27sw124061 0.0 101040
04:00+25sw236386 0.0 1010118
07:00+23sw128169 0.0 1012117
10:00+31wnw234654 0.0 1013853
13:00+39wnw031940 0.0 10092227
16:00+39ese351153 0.0 10053665
19:00+33sse241627 0.0 1006133
22:00+29ssw11280 0.0 100948
8 march, mon
mon801:00+26sw134936 0.0 1009144
04:00+25sw2370100 0.0 1009114
07:00+23ssw1284100 0.0 1010132
10:00+31sw115337 0.0 1012975
13:00+38w122427 0.0 10082520
16:00+38sse24170 0.0 10043519
19:00+32sw353932 0.0 1005283
22:00+29wsw234318 0.0 1008120